Bryce Canyon, UT

4:27 AM MST on December 06, 2019 (GMT -0700)
Bryce Canyon

Weather History for KBCE - October, 2019

Change the Weather History Date:

Wednesday, October 2, 2019

  Actual Average Record
Temperature  
Mean Temperature 40 °F -  
Max Temperature 61 °F 66 °F 77 °F (1980)
Min Temperature 19 °F 32 °F 14 °F (1977)
Degree Days  
Heating Degree Days 25    
Moisture  
Dew Point 9 °F    
Average Humidity 32    
Maximum Humidity 65    
Minimum Humidity 11    
Precipitation  
Precipitation 0.00 in - - ()
Sea Level Pressure  
Sea Level Pressure 30.02 in    
Wind  
Wind Speed 8 mph (SW)    
Max Wind Speed 14 mph    
Max Gust Speed -    
Visibility 10 miles    
Events      
Averages and records for this station are not official NWS values.
T = Trace of Precipitation, MM = Missing Value Source: NWS Daily Summary

Daily Weather History Graph

Daily Weather History Graph

Search for Another Location

Airport or City:

Astronomy

Oct. 02, 2019 Rise Set
Actual Time 7:24 AM MDT 7:10 PM MDT
Civil Twilight 6:58 AM MDT 7:36 PM MDT
Nautical Twilight 6:28 AM MDT 8:06 PM MDT
Astronomical Twilight 5:57 AM MDT 8:37 PM MDT
Moon 11:50 AM MDT (10/2) 10:11 PM MDT (10/2)
Length of Visible Light 12h 37m
Length of Day
11h 45m
Waxing Crescent, 21% of the Moon is Illuminated
Oct 2
Waxing Crescent
Oct 5
First Quarter
Oct 13
Full
Oct 21
Last Quarter
Oct 27
New

Hourly Weather History & Observations

Time (MDT) Temp. Windchill Dew Point Humidity Pressure Visibility Wind Dir Wind Speed Gust Speed Precip Events Conditions
12:53 AM 28.9 °F 19.8 °F 10.0 °F 45% 29.86 in 10.0 mi West 10.4 mph - N/A   Clear
1:53 AM 34.0 °F 27.2 °F 8.1 °F 34% 29.85 in 10.0 mi West 8.1 mph - N/A   Clear
2:53 AM 33.1 °F 24.9 °F 8.1 °F 35% 29.87 in 10.0 mi West 10.4 mph - N/A   Clear
3:53 AM 30.0 °F 21.7 °F 9.0 °F 41% 29.90 in 10.0 mi WSW 9.2 mph - N/A   Clear
4:53 AM 25.0 °F 17.1 °F 9.0 °F 51% 29.94 in 10.0 mi WSW 6.9 mph - N/A   Clear
5:53 AM 19.9 °F 14.9 °F 8.1 °F 60% 29.98 in 10.0 mi West 3.5 mph - N/A   Clear
6:53 AM 23.0 °F 13.9 °F 10.9 °F 60% 30.01 in 10.0 mi WSW 8.1 mph - N/A   Clear
7:53 AM 19.0 °F 12.3 °F 9.0 °F 65% 30.11 in 10.0 mi WSW 4.6 mph - N/A   Clear
8:53 AM 35.1 °F - 14.0 °F 42% 30.10 in 10.0 mi Calm Calm - N/A   Clear
9:53 AM 45.0 °F 42.6 °F 15.1 °F 30% 30.07 in 10.0 mi SW 4.6 mph - N/A   Clear
10:53 AM 50.0 °F - 12.9 °F 23% 30.09 in 10.0 mi Variable 3.5 mph - N/A   Clear
11:53 AM 53.1 °F - 10.9 °F 19% 30.08 in 10.0 mi Calm Calm - N/A   Clear
12:53 PM 55.0 °F - 15.1 °F 21% 30.06 in 10.0 mi Variable 6.9 mph - N/A   Clear
1:53 PM 57.0 °F - 15.1 °F 19% 30.01 in 10.0 mi SSE 11.5 mph - N/A   Clear
2:53 PM 59.0 °F - 15.1 °F 18% 29.99 in 10.0 mi SSE 6.9 mph - N/A   Clear
3:53 PM 60.1 °F - 12.0 °F 15% 30.00 in 10.0 mi SE 8.1 mph - N/A   Clear
4:53 PM 61.0 °F - 7.0 °F 12% 30.01 in 10.0 mi SE 13.8 mph - N/A   Clear
5:53 PM 60.1 °F - 3.9 °F 11% 30.04 in 10.0 mi SE 13.8 mph - N/A   Clear
6:53 PM 55.0 °F - 3.0 °F 12% 30.05 in 10.0 mi SE 11.5 mph - N/A   Clear
7:53 PM 48.0 °F - 1.0 °F 14% 30.11 in 10.0 mi SE 9.2 mph - N/A   Clear
8:53 PM 35.1 °F 31.0 °F 5.0 °F 28% 30.12 in 10.0 mi SW 4.6 mph - N/A   Clear
9:53 PM 28.0 °F 20.8 °F 7.0 °F 41% 30.11 in 10.0 mi WSW 6.9 mph - N/A   Clear
10:53 PM 27.0 °F 19.5 °F 6.1 °F 41% 30.10 in 10.0 mi WSW 6.9 mph - N/A   Clear
11:53 PM 27.0 °F 23.0 °F 6.1 °F 41% 30.09 in 10.0 mi West 3.5 mph - N/A   Clear